This is the latest recevied weather packets stored in our database for station/object CE3SUR-17. If no packets are shown the sender has not sent any weather packets the latest 10 day(s).
| Time | Temp. | Humidity | Pressure | Rain* | Wind** | Luminosity | Snow |
|---|---|---|---|---|---|---|---|
| 1777741124 | 25.56° C | 45% | 957.5 hPa | - | - | - | - |
| 1777739324 | 23.89° C | 46% | 958 hPa | - | - | - | - |
| 1777737719 | 23.33° C | 46% | 958.3 hPa | - | - | - | - |
| 1777737525 | 23.33° C | 46% | 958.3 hPa | - | - | - | - |
| 1777735725 | 21.67° C | 47% | 958.7 hPa | - | - | - | - |
| 1777733925 | 20.56° C | 48% | 959 hPa | - | - | - | - |
| 1777732124 | 19.44° C | 49% | 959.4 hPa | - | - | - | - |
| 1777730324 | 18.33° C | 49% | 959.5 hPa | - | - | - | - |
| 1777728524 | 17.22° C | 50% | 959.7 hPa | - | - | - | - |
| 1777726724 | 16.11° C | 51% | 959.7 hPa | - | - | - | - |
| 1777724924 | 15.56° C | 51% | 959.6 hPa | - | - | - | - |
| 1777723123 | 15° C | 51% | 959.5 hPa | - | - | - | - |
| 1777721323 | 15° C | 51% | 959.2 hPa | - | - | - | - |
| 1777719523 | 15.56° C | 51% | 959.2 hPa | - | - | - | - |
| 1777717723 | 15.56° C | 51% | 959.1 hPa | - | - | - | - |
| 1777715924 | 15.56° C | 51% | 959.1 hPa | - | - | - | - |
| 1777714123 | 16.11° C | 51% | 959.5 hPa | - | - | - | - |
| 1777712323 | 16.11° C | 51% | 959.7 hPa | - | - | - | - |
| 1777710523 | 16.67° C | 50% | 960.1 hPa | - | - | - | - |
| 1777708723 | 16.67° C | 50% | 960.3 hPa | - | - | - | - |
| 1777706922 | 16.67° C | 50% | 960.6 hPa | - | - | - | - |
| 1777705216 | 17.22° C | 50% | 960.9 hPa | - | - | - | - |
| 1777705122 | 17.22° C | 50% | 960.9 hPa | - | - | - | - |
| 1777703322 | 17.22° C | 50% | 961.3 hPa | - | - | - | - |
| 1777701522 | 17.78° C | 50% | 961.5 hPa | - | - | - | - |
* Rain since midnight (hover to see other rain measurements)
** Current wind speed in m/s (hover to see current wind gust speed)